Location: La Ceuillerai
(48.1667°N, 1.3833°W)
Time: 14:39:40
(UTC+00:00)

Daily predictions for brighter satellites

Satellite Brightness Start Highest point End
(mag) Time Altitude Azimuth Time Altitude Azimuth Time Altitude Azimuth
Cosmos 1980 4.0 19:32:11 10° NNW 19:37:46 53° ENE 19:43:19 10° SE
Cosmos 2360 Rocket 4.5 19:33:16 10° NW 19:37:47 25° WSW 19:42:15 10° SSW
SL-16 R/B 3.6 19:33:26 10° N 19:38:00 24° NE 19:42:31 10° E
Cosmos 2026 Rocket 4.0 19:32:35 10° N 19:38:41 74° E 19:44:49 10° SSE
Cosmos 2151 4.3 19:36:42 10° NNE 19:40:11 23° ENE 19:43:37 10° ESE
SME Rocket 3.3 19:36:26 10° NNE 19:40:24 88° WNW 19:45:38 10° SSW
USA 215 4.0 19:36:14 10° E 19:42:26 47° NNE 19:48:38 10° WNW
FALCON 9 DEB 4.4 19:41:09 10° S 19:43:17 17° SE 19:45:26 10° E
SPOT 3 Rocket 4.5 19:41:28 10° SE 19:46:02 32° ENE 19:50:36 10° N
Cosmos 1455 2.2 19:43:20 10° S 19:47:04 84° W 19:50:49 10° N
Meteor 2-10 Rocket 4.2 19:42:30 10° SSW 19:47:46 66° WNW 19:53:19 10° N
COSMOS 2455 4.3 19:44:38 10° SE 19:48:00 16° ESE 19:51:22 10° ENE
SL-4 R/B 3.2 19:46:33 10° SSW 19:50:09 26° SE 19:53:57 10° E
ATLAS 5 CENTAUR R/B 4.4 19:47:07 10° WNW 19:50:09 18° NNW 19:53:29 10° NNE
IRS-1A Rocket 4.4 19:45:47 10° SSE 19:51:20 68° ENE 19:57:03 10° N
Cosmos 2219 Rocket 3.2 19:47:00 10° NW 19:52:27 47° WSW 19:57:49 10° S
BREEZE-M DEB (TANK) 4.2 19:52:30 10° WSW 19:53:48 13° SSW 19:55:20 10° S
USA 186 2.5 19:50:55 10° S 19:54:08 54° W 19:57:12 10° NNW
CZ-4 R/B 4.3 19:51:23 10° SW 19:54:13 17° W 19:57:02 10° NW
Cosmos 1076 Rocket 3.7 19:52:20 10° N 19:56:37 57° ENE 20:00:52 10° SSE
COSMOS 2428 3.5 19:51:10 10° NW 19:56:43 52° WSW 20:02:15 10° S
IGS 5A 4.5 19:54:20 10° SE 19:57:56 30° ENE 20:01:34 10° N
ATLAS 5 CENTAUR R/B 2.3 19:56:33 10° WNW 19:58:11 24° SW 20:00:14 10° SSE
OBJECT-B 1.0 19:55:37 10° S 19:58:50 75° WSW 20:02:06 10° NNW
Meteor 2-1 Rocket 4.3 19:55:22 10° S 20:01:13 82° E 20:07:11 10° NNE
Cosmos 44 3.9 19:57:32 10° SW 20:02:40 69° NW 20:08:05 10° NE
Cosmos 2292 Rocket 4.3 19:56:36 10° N 20:03:09 63° ENE 20:08:00 10° SSE
Cosmos 1634 Rocket 4.1 19:57:01 10° S 20:03:17 88° W 20:09:34 10° N
Cosmos 1356 3.3 20:01:06 10° N 20:04:32 87° ENE 20:07:57 10° SSE
Cosmos 2344 3.5 19:57:25 10° SW 20:04:54 85° SE 20:12:55 10° NE
Cosmos 407 Rocket 3.8 20:01:51 10° S 20:06:41 44° ESE 20:11:36 10° NE
ARIANE 5 R/B 4.3 20:04:04 11° ESE 20:06:51 19° ENE 20:09:55 10° NNE
Orbus 7S? 3.5 20:08:07 10° WSW 20:10:57 72° NNW 20:16:17 10° NE
IRIDIUM 104 4.4 20:06:06 10° SSE 20:11:11 56° E 20:16:18 10° NNE
Meteor 2-3 Rocket 4.2 20:07:30 10° N 20:13:02 46° ENE 20:17:47 13° SE
RESURS DK-1 3.8 20:09:58 10° SW 20:13:54 42° NW 20:17:53 10° NNE
Cosmos 2058 Rocket 4.3 20:10:25 10° SSW 20:14:35 44° WNW 20:18:47 10° N
Cosmos 405 Rocket 3.1 20:12:43 10° NNW 20:16:43 68° W 20:20:35 10° S
NOSS 0 Rocket 4.4 20:11:37 10° NW 20:17:46 63° WSW 20:23:53 10° SSE
Cosmos 1140 Rocket 3.6 20:15:01 10° S 20:19:56 50° ESE 20:24:54 10° NNE
IRIDIUM 114 4.3 20:15:08 10° S 20:20:18 68° E 20:25:30 10° N
Cosmos 1812 Rocket 3.6 20:17:37 10° S 20:22:01 67° E 20:26:29 10° NNE
CZ-2C R/B 4.4 20:20:42 10° NNE 20:24:43 33° E 20:27:43 16° SSE
Cosmos 2237 Rocket 2.3 20:20:01 10° NNW 20:25:40 78° WSW 20:30:48 13° SSE
Timation 2 Rocket 4.2 20:20:28 10° S 20:26:46 51° ESE 20:32:51 10° NE
Meteor 2-21 4.4 20:22:04 10° N 20:28:09 75° E 20:34:06 11° SSE
Abrixas rocket 0.7 20:26:57 10° W 20:28:20 62° W 20:28:20 62° W
Cosmos 1825 4.2 20:25:41 10° NNW 20:28:57 28° W 20:32:13 10° SSW
IRIDIUM 103 4.3 20:24:14 10° S 20:29:26 81° E 20:34:41 10° N
Cosmos 1818 4.4 20:24:12 10° SW 20:29:32 55° NW 20:34:56 10° NNE
Cosmos 2180 Rocket 4.4 20:23:32 10° S 20:29:40 74° E 20:35:48 10° NNE
BREEZE M DEB (TANK) 2.8 20:24:35 10° WSW 20:33:56 74° SSE 20:36:33 14° ENE
Cosmos 1766 Rocket 4.4 20:30:24 10° N 20:34:22 34° ENE 20:36:22 22° ESE
Spot 2 Rocket 4.2 20:32:07 19° ESE 20:35:10 38° ENE 20:39:51 10° N
Cosmos 909 Rocket 4.5 20:33:19 10° SW 20:39:34 66° NW 20:46:08 10° NE
FALCON 9 DEB 2.9 20:37:13 10° SW 20:40:11 50° SSE 20:41:37 25° E
Cosmos 1633 2.6 20:37:11 10° NNW 20:40:47 79° W 20:43:19 18° S
Cosmos 2227 Rocket 2.2 20:35:56 10° SSW 20:41:30 63° ESE 20:47:06 10° NNE
Cosmos 2082 4.3 20:37:15 12° SSE 20:41:49 34° ESE 20:46:51 10° NE
Okean 3 Rocket 4.1 20:39:16 10° N 20:43:35 42° ENE 20:45:39 26° SE
FALCON 9 DEB 2.7 20:41:48 10° SW 20:44:48 65° SSE 20:46:28 23° ENE
Cosmos 1655 Rocket 4.0 20:39:02 10° N 20:45:22 87° E 20:50:54 14° S
Lacrosse 5 rocket 3.3 20:42:09 10° NW 20:45:44 26° N 20:49:29 10° ENE
Cosmos 2297 Rocket 2.1 20:42:29 10° SSW 20:48:09 87° ESE 20:53:50 10° NNE
Cosmos 1869 3.9 20:47:58 30° SE 20:49:10 37° E 20:52:49 10° NNE
Resurs 01 Rocket 1.8 20:46:10 15° S 20:49:47 71° WSW 20:54:16 10° NNW
Genesis I 3.6 20:46:33 10° NW 20:50:31 59° SW 20:52:33 26° SSE
Meteor 1-4 Rocket 3.2 20:50:30 32° ESE 20:50:46 33° E 20:53:58 10° NNE
ATLAS 2AS CENTAUR R/B 4.4 20:43:40 10° W 20:51:02 41° NNW 20:58:12 10° NE
FALCON 9 DEB 2.6 20:53:49 10° WSW 20:56:51 85° SSE 20:58:12 30° ENE
Cosmos 2219 3.2 20:51:47 10° SSW 20:57:24 88° WNW 21:03:05 10° NNE
Cosmos 389 Rocket 4.4 20:54:14 10° SW 20:57:26 32° WNW 21:00:41 10° N
Cosmos 2084 Rocket 3.1 20:56:29 10° SW 21:00:27 86° SE 21:04:32 10° NE
Cosmos 1763 Rocket 3.9 20:57:18 10° NNW 21:02:13 47° ENE 21:04:17 30° ESE
Cosmos 1190 Rocket 4.0 20:59:08 10° SSW 21:04:22 82° WNW 21:09:37 10° NNE
Terra 2.8 21:03:52 26° E 21:05:22 32° ENE 21:09:35 10° N
Meteor 2-8 Rocket 4.5 21:02:57 20° SSE 21:07:10 61° E 21:13:12 10° NNE
BREEZE-M DEB (TANK) 2.4 21:06:51 10° W 21:08:46 42° SW 21:08:46 42° SW
Cosmos 540 Rocket 4.5 21:05:15 10° N 21:09:51 32° ENE 21:11:41 25° E
NOSS 3-1 (C) 4.2 21:08:11 10° NW 21:15:26 66° NE 21:20:23 27° ESE
SPOT 5 3.1 21:14:08 37° ESE 21:15:34 52° ENE 21:20:18 10° N
Cosmos-2242 3.5 21:12:35 11° SSW 21:16:38 60° WNW 21:20:54 10° N
SPOT 1/Viking Rocket 3.6 21:14:17 27° S 21:17:14 78° WSW 21:22:30 10° NNW
Cosmos 2151 4.3 21:13:36 10° NNW 21:17:35 37° W 21:20:45 15° SSW
FALCON 9 DEB 2.8 21:15:41 10° WSW 21:18:45 79° NNW 21:18:54 75° NNE
Cosmos 1842 Rocket 4.2 21:20:26 36° E 21:20:37 37° E 21:24:44 10° NNE
SL-16 R/B 2.2 21:17:03 10° NNW 21:22:45 77° WSW 21:25:19 34° SSE
Cosmos 676 Rocket 3.9 21:17:35 10° SSW 21:22:47 88° ESE 21:28:00 10° NNE
USA 215 3.2 21:21:35 30° ESE 21:25:08 89° NNE 21:31:43 10° NW
SL-4 R/B 2.2 21:24:57 10° WSW 21:29:24 89° S 21:33:32 14° ENE
COSMOS 2455 2.7 21:27:00 10° SSW 21:33:00 82° ESE 21:39:04 10° NE
Cosmos 1408 Rocket 3.4 21:29:52 10° N 21:34:12 71° E 21:34:52 59° SE
ERS-1 Rocket 2.9 21:33:52 45° SSE 21:35:26 82° ENE 21:40:29 10° NNW
Cosmos 1862 3.2 21:37:29 10° N 21:41:28 68° E 21:41:30 68° E
Cosmos 2221 2.5 21:41:54 59° E 21:41:54 59° E 21:46:08 10° NNE
ARIANE 5 R/B 3.0 21:41:36 39° SSW 21:42:55 56° W 21:47:15 10° NNW
USA 245 4.2 21:43:08 31° WSW 21:43:38 33° W 21:46:28 10° NW
Meteor 2-15 Rocket 4.3 21:43:55 41° SSE 21:46:06 70° E 21:52:09 10° NNE
Timation 1 Rocket 4.4 21:41:59 10° SSW 21:47:57 78° WNW 21:53:58 10° NNE
Cosmos 1943 3.7 21:43:08 10° NNW 21:48:36 49° NE 21:50:06 39° E
Cosmos 1745 Rocket 4.3 21:45:45 10° N 21:51:53 50° ENE 21:53:25 42° ESE
Cosmos 1743 Rocket 3.6 21:48:44 10° N 21:53:02 60° ENE 21:53:02 60° ENE
SeaSat 1 4.4 21:49:58 10° ENE 21:51:18 15° ENE 21:51:18 15° ENE
Cosmos 44 Rocket 3.6 21:54:05 10° SW 21:59:10 72° NW 22:04:24 10° NE
TSX-5 4.1 22:01:04 39° SW 22:02:44 74° WNW 22:06:40 10° NNE
Cosmos 1606 4.0 22:06:55 32° NE 22:06:55 32° NE 22:09:13 10° NNE
Cosmos 1741 Rocket 3.9 22:05:13 61° S 22:06:08 80° ESE 22:11:27 10° NNE
CRYOSAT 2 4.3 22:05:43 65° SSW 22:06:27 83° W 22:11:23 10° N
BREEZE-M DEB (TANK) 3.2 21:58:33 10° WNW 22:06:19 63° SW 22:06:19 63° SW
S3M 4.2 22:05:25 48° SE 22:06:32 54° E 22:12:45 10° NNE
Cosmos 1850 Rocket 3.9 22:08:07 59° SSW 22:09:09 88° ESE 22:14:26 10° NNE
Cosmos 1500 Rocket 3.5 22:06:37 10° N 22:11:06 88° WNW 22:11:06 88° WNW
Cosmos 2263 Rocket 2.1 22:16:16 62° ESE 22:16:17 62° ESE 22:21:47 10° NNE
Aureole 1 Rocket 3.3 22:17:34 69° S 22:18:13 85° ESE 22:22:47 10° NNE
SL-08 R/B 4.5 22:14:36 10° NNW 22:20:48 76° W 22:22:23 52° SSW
H-2A R/B 3.7 22:16:56 10° N 22:21:08 65° WNW 22:21:10 65° WNW
Cosmos 1386 Rocket 4.3 22:15:18 10° N 22:21:22 78° E 22:22:22 62° SE
USA 229 DEB 3.8 22:17:31 10° NW 22:24:50 85° SW 22:27:01 52° SSE
USA 229 3.8 22:17:37 10° NW 22:24:56 85° SW 22:27:07 51° SSE
Lacrosse 5 rocket 1.9 22:21:18 10° NW 22:25:34 56° NNE 22:25:34 56° NNE
Cosmos 2227 Rocket 4.2 22:21:11 10° WSW 22:26:00 28° NW 22:30:50 10° NNE
Cosmos 2208 Rocket 3.9 22:27:09 10° NNW 22:32:31 78° ENE 22:32:47 76° E
Cosmos 1553 Rocket 4.1 22:33:03 47° SW 22:34:48 70° WNW 22:40:55 10° N
ALOS 2 4.1 22:35:37 27° NE 22:35:37 27° NE 22:38:56 10° N
Cosmos 841 Rocket 3.6 22:31:03 10° NNW 22:36:11 61° WSW 22:36:20 61° WSW
Cosmos 1603 3.6 22:31:44 10° NNW 22:37:28 75° WSW 22:37:52 71° SSW
NOSS 3-1 (A) 4.0 22:35:20 10° NW 22:42:49 76° SW 22:45:03 53° SSE
Intercosmos 24 4.4 22:42:56 76° WNW 22:42:56 76° WNW 22:47:02 10° N
Terra 2.9 22:42:44 34° WSW 22:43:04 35° W 22:47:26 10° NNW
Cosmos 921 Rocket 3.9 22:45:37 10° NNW 22:49:08 45° WNW 22:49:08 45° WNW
Cosmos 540 Rocket 4.2 22:46:46 10° NW 22:51:30 40° WSW 22:51:30 40° WSW
Cosmos 1814 Rocket 4.1 22:46:51 10° NNW 22:51:58 64° W 22:51:58 64° W
Meteor 2-17 Rocket 4.3 22:48:51 10° N 22:55:02 84° E 22:55:34 75° SSE
Cosmos 1437 Rocket 4.3 23:05:15 33° N 23:05:15 33° N 23:07:30 10° N
SL-16 R/B 4.5 23:03:34 10° WNW 23:05:52 13° W 23:07:12 12° WSW
USA 215 4.2 23:08:55 32° SW 23:08:55 32° SW 23:14:23 10° WNW
SL-4 R/B 2.9 23:04:50 10° W 23:09:09 55° NNW 23:09:09 55° NNW
Cosmos 2184 Rocket 4.5 23:08:18 10° N 23:14:25 47° ENE 23:14:58 46° E
NOSS 2-2 (E) 4.5 23:09:27 10° NW 23:14:46 72° NE 23:15:39 63° E
Cosmos 2315 Rocket 3.9 23:16:01 78° SSW 23:16:30 89° W 23:22:56 10° N
Meteor 1-25 Rocket 4.4 23:13:16 10° NNW 23:18:56 62° W 23:19:00 62° W
Sich 1 4.4 23:15:28 10° NNW 23:18:26 34° WNW 23:18:26 34° WNW
ATLAS 5 CENTAUR R/B 3.8 23:18:30 10° NNW 23:23:02 29° NNE 23:27:06 15° E
SeaSat 1 2.7 23:26:34 10° NNE 23:31:05 66° NNW 23:31:05 66° NNW
Cosmos 1943 4.4 23:27:33 10° NW 23:31:55 30° W 23:31:55 30° W
Iridium 4 Rocket 3.7 23:38:02 67° NNW 23:38:02 67° NNW 23:42:52 10° N
Nimbus 7 Rocket 4.5 23:34:24 10° NNE 23:39:53 63° E 23:39:53 63° E
Cosmos 1633 Rocket 4.4 23:36:24 10° NNW 23:39:17 36° NW 23:39:17 36° NW
Cosmos 1844 4.3 23:41:40 47° ENE 23:41:40 47° ENE 23:46:11 10° NE
Cosmos 2074 Rocket 3.9 23:34:40 10° N 23:40:58 75° E 23:41:12 74° E
Meteor 1-26 Rocket 4.4 23:42:09 68° W 23:42:16 68° WNW 23:48:04 10° N
USA 281 3.8 23:43:08 38° E 23:45:05 49° NE 23:51:22 10° NNW
